Location: Casco Volunteer Fire Department
(44.5576°N, 87.6146°W)
Time: 04:25:21
(UTC+00:00)

SAR-Lupe-4 - Pass Details

Date: 22 January 2026
Orbit: 480 x 483 km, 98.1° (Epoch: 10 January)

Event Time Altitude Azimuth Distance (km) Brightness Sun altitude
Rises 23:39:51 0° 159° (SSE) 2,530 7.2 -9.7°
Reaches altitude 10° 23:41:54 10° 156° (SSE) 1,656 6.2 -10.1°
Maximum altitude 23:45:25 65° 75° (ENE) 534 3.5 -10.7°
Drops below altitude 10° 23:48:59 10° 352° (N) 1,671 6.2 -11.3°
Sets 23:51:04 0° 350° (N) 2,556 7.2 -11.6°
